FW1695 Weather Reports


time (UTC)temp
F
wind
direction
speed
knots
gust
knots
rain 1hr
in
rain 24hr
in
rain mn
in
humidity
%
barometer
mb
20260504005058 83 119 0.0 3.5 0.00 0.00 0.00 33 1007.0
20260504004621 83 110 0.0 3.5 0.00 0.00 0.00 33 1007.0
20260504004057 83 90 0.0 3.5 0.00 0.00 0.00 33 1006.9
20260504003557 84 117 0.0 3.5 0.00 0.00 0.00 33 1007.0
20260504003102 84 100 0.9 3.5 0.00 0.00 0.00 32 1006.9
20260504002556 84 135 0.0 3.5 0.00 0.00 0.00 32 1006.9
20260504002059 85 110 0.0 4.3 0.00 0.00 0.00 31 1006.8
20260504001601 85 84 0.9 7.8 0.00 0.00 0.00 31 1006.8
20260504001100 85 125 0.9 7.8 0.00 0.00 0.00 29 1006.6
20260504000556 85 96 0.9 7.0 0.00 0.00 0.00 30 1006.6
20260504000055 86 102 2.6 7.0 0.00 0.00 0.00 30 1006.6
20260503235555 86 113 0.9 9.6 0.00 0.00 0.00 30 1006.4
20260503235058 86 67 4.3 9.6 0.00 0.00 0.00 29 1006.5
20260503234554 87 131 3.5 7.0 0.00 0.00 0.00 29 1006.4
20260503234054 87 37 0.9 5.2 0.00 0.00 0.00 29 1006.4
20260503233554 87 94 0.0 5.2 0.00 0.00 0.00 29 1006.4
20260503233055 87 108 0.9 5.2 0.00 0.00 0.00 29 1006.5
20260503232554 87 63 0.9 5.2 0.00 0.00 0.00 29 1006.5
20260503232056 86 27 0.9 7.0 0.00 0.00 0.00 30 1006.5
20260503231556 86 75 1.7 7.0 0.00 0.00 0.00 30 1006.5
20260503231057 85 285 1.7 7.0 0.00 0.00 0.00 28 1006.4
20260503230553 85 91 0.9 7.0 0.00 0.00 0.00 28 1006.5
20260503230053 86 191 0.0 7.0 0.00 0.00 0.00 28 1006.5
20260503225551 86 143 2.6 7.0 0.00 0.00 0.00 28 1006.5
20260503225051 87 110 0.0 4.3 0.00 0.00 0.00 27 1006.5
20260503224550 87 294 0.9 6.1 0.00 0.00 0.00 28 1006.7
20260503224049 87 95 0.0 7.0 0.00 0.00 0.00 29 1006.7
20260503223549 87 93 0.0 10.4 0.00 0.00 0.00 29 1006.8
20260503223049 88 56 3.5 10.4 0.00 0.00 0.00 29 1006.7
20260503222549 88 70 3.5 10.4 0.00 0.00 0.00 29 1006.8
20260503222050 87 65 0.9 6.1 0.00 0.00 0.00 28 1006.7
20260503221552 87 94 0.0 6.1 0.00 0.00 0.00 28 1006.9
20260503221052 86 121 1.7 10.4 0.00 0.00 0.00 27 1007.0
20260503220547 87 46 0.9 10.4 0.00 0.00 0.00 27 1007.0
20260503220046 88 49 5.2 10.4 0.00 0.00 0.00 27 1007.0
20260503215546 88 110 0.9 7.8 0.00 0.00 0.00 28 1007.0
20260503215044 87 50 0.9 7.8 0.00 0.00 0.00 27 1007.0
20260503214542 87 56 1.7 7.8 0.00 0.00 0.00 29 1007.2
20260503214042 86 314 3.5 7.8 0.00 0.00 0.00 31 1007.2
20260503213542 85 354 1.7 7.8 0.00 0.00 0.00 31 1007.2
20260503213044 86 293 0.0 7.0 0.00 0.00 0.00 30 1007.3
20260503212541 86 69 1.7 9.6 0.00 0.00 0.00 31 1007.5
20260503212042 86 23 1.7 9.6 0.00 0.00 0.00 31 1007.6
20260503211542 86 243 2.6 7.0 0.00 0.00 0.00 30 1007.7
20260503211042 86 70 0.9 6.1 0.00 0.00 0.00 30 1007.7
20260503210538 87 62 0.9 7.8 0.00 0.00 0.00 30 1007.8
20260503210037 86 144 0.0 7.8 0.00 0.00 0.00 30 1007.9
20260503205536 87 333 1.7 6.1 0.00 0.00 0.00 31 1008.0
20260503205035 87 84 0.9 6.1 0.00 0.00 0.00 30 1008.1
20260503204534 88 32 0.9 6.1 0.00 0.00 0.00 31 1008.2
20260503204033 87 175 0.0 8.7 0.00 0.00 0.00 31 1008.2
20260503203536 87 352 3.5 8.7 0.00 0.00 0.00 32 1008.6
20260503203032 87 155 2.6 10.4 0.00 0.00 0.00 32 1008.6
20260503202531 87 77 3.5 10.4 0.00 0.00 0.00 32 1008.8
20260503202034 87 249 2.6 13.0 0.00 0.00 0.00 31 1009.0
20260503201530 87 89 4.3 13.0 0.00 0.00 0.00 31 1008.9
20260503201028 87 18 1.7 8.7 0.00 0.00 0.00 33 1008.9
20260503200528 86 159 0.0 8.7 0.00 0.00 0.00 33 1009.0
20260503200026 86 51 3.5 12.2 0.00 0.00 0.00 33 1009.0
20260503195526 86 131 3.5 12.2 0.00 0.00 0.00 34 1009.1
20260503195024 86 78 1.7 7.8 0.00 0.00 0.00 36 1009.2
20260503194523 86 124 0.0 4.3 0.00 0.00 0.00 36 1009.3
20260503194021 85 139 0.0 5.2 0.00 0.00 0.00 37 1009.3
20260503193520 84 135 0.9 5.2 0.00 0.00 0.00 39 1009.4
20260503193034 84 150 0.9 7.8 0.00 0.00 0.00 38 1009.4
20260503192518 84 71 3.5 7.8 0.00 0.00 0.00 38 1009.6
20260503192018 84 138 3.5 7.0 0.00 0.00 0.00 40 1009.6
20260503191517 83 91 1.7 7.8 0.00 0.00 0.00 41 1009.7
20260503191018 83 99 4.3 10.4 0.00 0.00 0.00 42 1009.8
20260503190517 83 245 0.0 7.8 0.00 0.00 0.00 41 1009.9
20260503190024 82 173 1.7 7.8 0.00 0.00 0.00 42 1009.9
20260503185514 82 121 1.7 8.7 0.00 0.00 0.00 42 1010.0
20260503185013 83 78 4.3 8.7 0.00 0.00 0.00 42 1010.1
20260503184613 82 55 1.7 7.0 0.00 0.00 0.00 44 1010.2
20260503184012 82 75 1.7 7.0 0.00 0.00 0.00 44 1010.5
20260503183512 82 103 0.9 5.2 0.00 0.00 0.00 45 1010.6
20260503183010 81 125 0.0 7.0 0.00 0.00 0.00 46 1010.7
20260503182514 80 127 1.7 7.0 0.00 0.00 0.00 47 1010.8
20260503182014 79 87 1.7 5.2 0.00 0.00 0.00 47 1011.0
20260503181507 80 105 0.0 8.7 0.00 0.00 0.00 47 1011.1
20260503181009 79 87 1.7 8.7 0.00 0.00 0.00 49 1011.2
20260503180508 79 78 0.9 7.0 0.00 0.00 0.00 48 1011.4
20260503180006 80 105 1.7 7.0 0.00 0.00 0.00 48 1011.5
20260503175506 79 130 0.0 6.1 0.00 0.00 0.00 50 1011.6
20260503175004 78 163 0.9 6.1 0.00 0.00 0.00 49 1011.6
20260503174504 78 117 0.0 6.1 0.00 0.00 0.00 50 1011.9
20260503174004 78 66 2.6 6.1 0.00 0.00 0.00 51 1011.9
20260503173606 78 341 0.0 6.1 0.00 0.00 0.00 52 1012.1
20260503173007 77 86 1.7 6.1 0.00 0.00 0.00 54 1012.2
20260503172503 78 75 0.0 3.5 0.00 0.00 0.00 54 1012.4
20260503172001 0 0.0 0.0 0.00 0.00 0.00 1012.6
20260503171501 0 0.0 0.0 0.00 0.00 0.00 1012.7
20260503171001 0 0.0 0.0 0.00 0.00 0.00 1012.8
20260503170600 0 0.0 0.0 0.00 0.00 0.00 1012.8
20260503170103 0 0.0 0.0 0.00 0.00 0.00 1012.8
20260503160108 0 0.0 0.0 0.00 0.00 0.00 1013.4
20260503150544 0 0.0 0.0 0.00 0.00 0.00 1013.5
20260503140126 0 0.0 0.0 0.00 0.00 0.00 1012.9
20260503055020 61 242 0.0 3.5 0.00 0.00 0.00 80 1009.2
20260503054529 61 301 0.0 3.5 0.00 0.00 0.00 80 1009.2
20260503054022 61 322 0.9 2.6 0.00 0.00 0.00 80 1009.2
20260503053519 61 281 0.0 2.6 0.00 0.00 0.00 80 1009.1
20260503053018 61 294 0.0 2.6 0.00 0.00 0.00 80 1009.1
20260503052518 61 290 0.0 4.3 0.00 0.00 0.00 79 1009.0
20260503052022 62 335 1.7 4.3 0.00 0.00 0.00 79 1009.0
20260503051516 62 319 0.0 3.5 0.00 0.00 0.00 79 1009.0
20260503051016 62 295 0.0 5.2 0.00 0.00 0.00 79 1008.9
20260503050516 62 308 1.7 5.2 0.00 0.00 0.00 79 1008.8
20260503050016 62 295 0.0 4.3 0.00 0.00 0.00 78 1008.8
20260503045517 63 332 1.7 4.3 0.00 0.00 0.00 78 1008.6
20260503045011 63 343 0.0 3.5 0.00 0.00 0.00 77 1008.6
20260503044513 63 70 0.0 2.6 0.00 0.00 0.00 76 1008.5
20260503044011 63 68 0.0 0.0 0.00 0.00 0.00 76 1008.4
20260503043510 63 84 0.0 0.0 0.00 0.00 0.00 76 1008.3
20260503043010 63 242 0.0 0.0 0.00 0.00 0.00 76 1008.3
20260503042509 63 243 0.0 0.0 0.00 0.00 0.00 76 1008.1
20260503042009 63 243 0.0 0.0 0.00 0.00 0.00 76 1008.2
20260503041508 63 185 0.0 0.9 0.00 0.00 0.00 76 1008.1
20260503041007 63 186 0.0 2.6 0.00 0.00 0.00 76 1008.0
20260503040511 63 204 0.0 2.6 0.00 0.00 0.00 77 1007.9
20260503040006 63 233 0.0 2.6 0.00 0.00 0.00 77 1007.8
20260503035505 63 220 0.0 5.2 0.00 0.00 0.00 77 1007.6
20260503035006 63 231 0.0 5.2 0.00 0.00 0.00 77 1007.6
20260503034503 63 238 0.9 4.3 0.00 0.00 0.00 76 1007.5
20260503034003 64 238 0.9 4.3 0.00 0.00 0.00 76 1007.4
20260503033501 64 217 0.0 5.2 0.00 0.00 0.00 75 1007.3
20260503033002 64 238 0.9 5.2 0.00 0.00 0.00 76 1007.1
20260503032602 64 75 0.0 4.3 0.00 0.00 0.00 75 1007.1
20260503032102 64 139 0.9 4.3 0.00 0.00 0.00 75 1006.8
20260503031559 64 118 0.0 7.0 0.00 0.00 0.00 74 1006.5
20260503031058 65 155 2.6 7.0 0.00 0.00 0.00 74 1006.3
20260503030558 65 153 0.0 7.8 0.00 0.00 0.00 74 1006.0
20260503030057 64 172 0.9 9.6 0.00 0.00 0.00 75 1005.7
20260503025558 64 219 3.5 13.9 0.00 0.00 0.00 75 1005.4
20260503025058 64 200 4.3 13.9 0.00 0.00 0.00 75 1005.1
20260503024557 65 206 4.3 10.4 0.00 0.00 0.00 73 1005.1
20260503024056 65 233 2.6 9.6 0.00 0.00 0.00 72 1005.0
20260503023556 66 177 2.6 9.6 0.00 0.00 0.00 72 1004.9
20260503023058 66 179 3.5 10.4 0.00 0.00 0.00 70 1004.5
20260503022555 67 232 4.3 10.4 0.00 0.00 0.00 70 1004.3
20260503022057 68 170 3.5 9.6 0.00 0.00 0.00 68 1004.1
20260503021554 68 229 3.5 10.4 0.00 0.00 0.00 67 1003.9
20260503021055 69 231 5.2 11.3 0.00 0.00 0.00 65 1003.7
20260503020555 70 197 1.7 11.3 0.00 0.00 0.00 63 1003.7
20260503020057 72 222 1.7 8.7 0.00 0.00 0.00 60 1003.5
20260503015554 73 169 1.7 11.3 0.00 0.00 0.00 57 1003.2
20260503015058 75 155 4.3 11.3 0.00 0.00 0.00 54 1002.9
20260503014605 76 147 0.0 10.4 0.00 0.00 0.00 49 1002.8
20260503014054 77 240 4.3 10.4 0.00 0.00 0.00 49 1002.7
20260503013552 80 182 6.1 10.4 0.00 0.00 0.00 40 1002.6
20260503013052 82 317 0.0 0.0 0.00 0.00 0.00 25 1002.2
20260503012555 82 317 0.0 4.3 0.00 0.00 0.00 25 1002.1
20260503012053 83 319 0.0 4.3 0.00 0.00 0.00 25 1002.0
20260503011552 83 109 0.0 4.3 0.00 0.00 0.00 25 1002.0
20260503011054 83 57 0.0 2.6 0.00 0.00 0.00 24 1001.9
20260503010551 84 77 0.0 5.2 0.00 0.00 0.00 24 1001.8
20260503010052 84 84 0.9 5.2 0.00 0.00 0.00 24 1001.8
20260503005554 85 136 0.9 4.3 0.00 0.00 0.00 24 1001.7